Вернуться в каталог

FENGYUN 1C DEB

АктивенPO
NORAD 30437·DEBRIS·🇨🇳 China

Запущен May 10, 1999 с Taiyuan Satellite Launch Center

Loading…

Ближайшие Пролёты (ближайшие 24 часа)

TLE

СвежийSource: Space-Track

Эпоха: Sep 14, 2026, 10:31 UTC

1 30437U 99025AEY 26257.43883763  .00016758  00000-0  13192-2 0  9991
2 30437  98.8930 319.2366 0022343 294.3375  77.7604 15.00715331 33040

Отслеживайте FENGYUN 1C DEB в реальном времени с AllMySat

Download on the App Store